Tracking 28238 objects as of 28-Nov-2023
HD Live streaming from Space Station
objects crossing your sky now

LUCKY-7

Track LUCKY-7 now!
10-day predictions
LUCKY-7 is classified as:


NORAD ID: 44406
Int'l Code: 2019-038W
Perigee: 468.0 km
Apogee: 494.7 km
Inclination: 97.7 °
Period: 94.1 minutes
Semi major axis: 6852 km
RCS: Unknown
Launch date: July 5, 2019
Source: United States (US)
Launch site: VOSTOCHNY COSMODROME (VOSTO)

Uplink (MHz):
Downlink (MHz): 437.525
Beacon (MHz):
Mode: 4k8/9k6 GFSK
Call sign:
Status: Active

Your satellite tracking list
Your tracking list is empty




NASA's NSSDC Master Catalog

Two Line Element Set (TLE):
1 44406U 19038W   23332.47866272  .00026896  00000-0  90656-3 0  9994
2 44406  97.6954 316.2771 0019510  87.9816 272.3659 15.30526335243390
Source of the keplerian elements: AFSPC